Powrót do katalogu

GHGSAT-C13

AktywnyNaukaSSO
NORAD 64548·PAYLOAD·🇨🇦 Canada

Wystrzelony Jun 23, 2025 z Vandenberg Space Force Base

Loading…

Następne Przeloty (najbliższe 24 godziny)

TLE

ŚwieżeSource: Space-Track

Epoka: Sep 14, 2026, 13:26 UTC

1 64548U 25135W   26257.56024269  .00004721  00000-0  21007-3 0  9996
2 64548  97.4857  12.3833 0002111 118.9527 241.1921 15.21966002 68441

Śledź GHGSAT-C13 w czasie rzeczywistym z AllMySat

Download on the App Store